Flag for Brazil Weather past 2 weeks in Recife, Pernambuco, Brazil

Now
77 °F

Passing clouds.


Feels Like: 79 °F
Forecast: 77 / 83 °F
Wind: 16 mph from Southeast

Location: Recife Aeroporto

Current Time: Jul 23, 2014 at 3:11:35 AM

Latest Report: Jul 23, 2014 at 2:00 AM


Visibility: N/A

Pressure: 30.04 "Hg

Humidity: 79%

Dew point: 70 °F

Location of RecifeLocation

Historic Weather in Recife — Graph

°F

Recife temperature yesterday

Maximum temperature yesterday: 82 °F (at 10:00 AM)
Minimum temperature yesterday: 75 °F (at 2:00 AM)
Average temperature yesterday: 79 °F

Past Weeks' High & Low Weather Summary

 TemperatureHumidityPressure
High84 °F (Jul 8, 12:00 PM)100% (Jul 13, 12:00 AM)30.09 "Hg (Jul 13, 12:00 AM)
Low70 °F (Jul 13, 3:00 AM)58% (Jul 10, 1:00 PM)29.95 "Hg (Jul 10, 3:00 PM)
Average78 °F80%30.04 "Hg
* Reported Jul 8 2:00 AM — Jul 23 2:00 AM, Recife, Weather by CustomWeather, © 2014

Note: Actual official high and low records may vary slightly from our data, if they occured in-between our weather recording intervals... More about our weather records

Advertising

Recife weather history for previous 24 hours

 ConditionsComfort  
Time TempWeatherWind HumidityBarometerVisibility
2:00 AM
Jul 23
77 °FPassing clouds.16 mph79%30.04 "HgN/A
1:00 AM77 °FPassing clouds.18 mph79%30.07 "HgN/A
12:00 AM79 °FPassing clouds.17 mph74%30.09 "HgN/A
11:00 PM
Jul 22
77 °FPartly cloudy.17 mph83%30.09 "HgN/A
10:00 PM79 °FPassing clouds.14 mph74%30.09 "HgN/A
9:00 PM79 °FPassing clouds.16 mph74%30.09 "HgN/A
2:00 PM82 °FBroken clouds.18 mph70%30.04 "HgN/A
1:00 PM81 °FBroken clouds.20 mph74%30.04 "HgN/A
12:00 PM82 °FBroken clouds.18 mph70%30.07 "HgN/A
11:00 AM82 °FScattered clouds.18 mph70%30.09 "HgN/A
10:00 AM82 °FScattered clouds.17 mph70%30.09 "HgN/A
9:00 AM81 °FScattered clouds.18 mph70%30.09 "HgN/A
8:00 AM81 °FBroken clouds.16 mph74%30.09 "HgN/A
7:00 AM79 °FBroken clouds.17 mph74%30.07 "HgN/A
6:00 AM77 °FPartly sunny.14 mph79%30.07 "HgN/A
5:00 AM77 °FPartly cloudy.13 mph79%30.04 "HgN/A
4:00 AM77 °FPassing clouds.13 mph74%30.04 "HgN/A
3:00 AM77 °FPassing clouds.14 mph79%30.04 "HgN/A
Weather by CustomWeather, © 2014

See weather overviewHow to use our weather pages